When you browse on this site, cookies collect data to enhance your experience and personalize the content and advertising you see.
Visit our Privacy Policy to learn more. By continuing to use the site, you agree to this use of cookies and data.
  • In United Kingdom
  • List of Countries
  • For 7 days
  • Water Temperature
  • Weather Map
  • Weather Widgets
  • user-avatar
    Login

    Hourly Weather La Esperanza

    Today, 21 August, Wednesday

    Time Temperature Precipitation Wind Pressure Humidity
    00:00 +16°C° 0.6 mm 1 mps 617 mmHg 95%
    01:00 +16°C° 0.2 mm 1 mps 616 mmHg 95%
    02:00 +15°C° 0.2 mm 1 mps 616 mmHg 96%
    03:00 +15°C° 0.2 mm 1 mps 616 mmHg 96%
    04:00 +15°C° 0.1 mm 1 mps 616 mmHg 96%
    05:00 +15°C° 0.1 mm 1 mps 616 mmHg 96%
    06:00 +15°C° 0.1 mm 1 mps 616 mmHg 96%
    07:00 +18°C° 0 mm 1 mps 617 mmHg 88%
    08:00 +20°C° 0 mm 1 mps 618 mmHg 80%
    09:00 +23°C° 0 mm 1 mps 619 mmHg 72%
    10:00 +24°C° 0.1 mm 1 mps 620 mmHg 66%
    11:00 +25°C° 0.1 mm 1 mps 620 mmHg 60%
    12:00 +26°C° 0.1 mm 2 mps 620 mmHg 55%
    13:00 +25°C° 0.8 mm 2 mps 619 mmHg 60%
    14:00 +25°C° 0.8 mm 1 mps 618 mmHg 66%
    15:00 +24°C° 0.8 mm 1 mps 617 mmHg 72%
    16:00 +22°C° 1.2 mm 1 mps 617 mmHg 78%
    17:00 +21°C° 1.2 mm 1 mps 617 mmHg 84%
    18:00 +17°C° 1.2 mm 0 mps 616 mmHg 91%
    19:00 +16°C° 0.1 mm 0 mps 616 mmHg 91%
    20:00 +18°C° 0.1 mm 1 mps 617 mmHg 92%
    21:00 +16°C° 0.1 mm 1 mps 617 mmHg 93%
    22:00 +16°C° 0 mm 1 mps 617 mmHg 94%
    23:00 +15°C° 0 mm 1 mps 617 mmHg 94%

    Tomorrow, 22 August, Thursday

    Time Temperature Precipitation Wind Pressure Humidity
    00:00 +15°C° 0 mm 1 mps 617 mmHg 94%
    01:00 +15°C° 0 mm 1 mps 616 mmHg 94%
    02:00 +15°C° 0 mm 1 mps 616 mmHg 94%
    03:00 +15°C° 0 mm 1 mps 616 mmHg 93%
    04:00 +14°C° 0 mm 1 mps 616 mmHg 93%
    05:00 +14°C° 0 mm 1 mps 616 mmHg 93%
    06:00 +14°C° 0 mm 1 mps 616 mmHg 93%
    07:00 +18°C° 0 mm 1 mps 617 mmHg 84%
    08:00 +20°C° 0 mm 1 mps 619 mmHg 74%
    09:00 +23°C° 0 mm 1 mps 620 mmHg 65%
    10:00 +24°C° 0 mm 1 mps 620 mmHg 59%
    11:00 +25°C° 0 mm 1 mps 620 mmHg 54%
    12:00 +26°C° 0 mm 2 mps 620 mmHg 48%
    13:00 +26°C° 0.2 mm 2 mps 619 mmHg 51%
    14:00 +25°C° 0.2 mm 2 mps 619 mmHg 55%
    15:00 +25°C° 0.2 mm 2 mps 618 mmHg 58%
    16:00 +23°C° 0.3 mm 1 mps 618 mmHg 66%
    17:00 +21°C° 0.3 mm 1 mps 617 mmHg 74%
    18:00 +18°C° 0.3 mm 0 mps 616 mmHg 82%
    19:00 +17°C° 0.1 mm 0 mps 616 mmHg 84%
    20:00 +18°C° 0.1 mm 1 mps 617 mmHg 86%
    21:00 +16°C° 0.1 mm 1 mps 617 mmHg 88%
    22:00 +16°C° 0 mm 1 mps 617 mmHg 89%
    23:00 +15°C° 0 mm 1 mps 617 mmHg 91%

    Day after tomorrow, 23 August, Friday

    Time Temperature Precipitation Wind Pressure Humidity
    00:00 +15°C° 0 mm 1 mps 616 mmHg 92%
    01:00 +15°C° 0 mm 1 mps 616 mmHg 92%
    02:00 +15°C° 0 mm 1 mps 616 mmHg 91%
    03:00 +14°C° 0 mm 1 mps 615 mmHg 91%
    04:00 +14°C° 0 mm 1 mps 616 mmHg 90%
    05:00 +14°C° 0 mm 1 mps 616 mmHg 89%
    06:00 +14°C° 0 mm 1 mps 616 mmHg 88%
    07:00 +18°C° 0 mm 1 mps 617 mmHg 74%
    08:00 +21°C° 0 mm 1 mps 619 mmHg 61%
    09:00 +24°C° 0 mm 1 mps 620 mmHg 47%
    10:00 +25°C° 0 mm 1 mps 620 mmHg 45%
    11:00 +26°C° 0 mm 2 mps 620 mmHg 42%
    12:00 +27°C° 0 mm 2 mps 621 mmHg 39%
    13:00 +27°C° 0 mm 2 mps 620 mmHg 41%
    14:00 +27°C° 0 mm 2 mps 619 mmHg 42%
    15:00 +26°C° 0 mm 2 mps 619 mmHg 43%
    16:00 +24°C° 0.1 mm 1 mps 618 mmHg 55%
    17:00 +22°C° 0.1 mm 1 mps 617 mmHg 67%
    18:00 +18°C° 0.1 mm 0 mps 616 mmHg 78%
    19:00 +19°C° 0 mm 1 mps 616 mmHg 80%
    20:00 +18°C° 0 mm 1 mps 617 mmHg 82%
    21:00 +16°C° 0 mm 1 mps 617 mmHg 83%
    22:00 +15°C° 0 mm 1 mps 617 mmHg 85%
    23:00 +15°C° 0 mm 1 mps 616 mmHg 87%

    24 August, Saturday

    Time Temperature Precipitation Wind Pressure Humidity
    00:00 +15°C° 0 mm 1 mps 616 mmHg 89%
    01:00 +15°C° 0 mm 1 mps 616 mmHg 89%
    02:00 +15°C° 0 mm 1 mps 616 mmHg 89%
    03:00 +14°C° 0 mm 1 mps 615 mmHg 90%
    04:00 +14°C° 0 mm 1 mps 616 mmHg 90%
    05:00 +14°C° 0 mm 1 mps 616 mmHg 90%
    06:00 +14°C° 0 mm 1 mps 616 mmHg 90%
    07:00 +18°C° 0 mm 1 mps 617 mmHg 81%
    08:00 +21°C° 0 mm 1 mps 619 mmHg 71%
    09:00 +24°C° 0 mm 1 mps 620 mmHg 62%
    10:00 +24°C° 0.1 mm 1 mps 620 mmHg 59%
    11:00 +25°C° 0.1 mm 1 mps 620 mmHg 56%
    12:00 +26°C° 0.1 mm 1 mps 620 mmHg 53%
    13:00 +25°C° 1.5 mm 1 mps 619 mmHg 62%
    14:00 +24°C° 1.5 mm 1 mps 618 mmHg 70%
    15:00 +23°C° 1.5 mm 1 mps 617 mmHg 78%
    16:00 +22°C° 1.2 mm 1 mps 617 mmHg 82%
    17:00 +20°C° 1.2 mm 1 mps 616 mmHg 87%
    18:00 +19°C° 1.2 mm 1 mps 616 mmHg 92%
    19:00 +18°C° 0.1 mm 1 mps 616 mmHg 93%
    20:00 +16°C° 0.1 mm 1 mps 616 mmHg 94%
    21:00 +16°C° 0.1 mm 1 mps 617 mmHg 95%
    22:00 +16°C° 0 mm 1 mps 616 mmHg 95%
    23:00 +15°C° 0 mm 1 mps 616 mmHg 95%

    25 August, Sunday

    Time Temperature Precipitation Wind Pressure Humidity
    00:00 +15°C° 0 mm 1 mps 616 mmHg 95%
    01:00 +15°C° 0 mm 1 mps 616 mmHg 95%
    02:00 +15°C° 0 mm 1 mps 615 mmHg 95%
    03:00 +15°C° 0 mm 1 mps 615 mmHg 96%
    04:00 +15°C° 0 mm 1 mps 615 mmHg 96%
    05:00 +15°C° 0 mm 1 mps 615 mmHg 96%
    06:00 +15°C° 0 mm 1 mps 615 mmHg 96%
    07:00 +18°C° 0 mm 1 mps 617 mmHg 89%
    08:00 +20°C° 0 mm 1 mps 618 mmHg 82%
    09:00 +20°C° 0 mm 0 mps 619 mmHg 76%
    10:00 +23°C° 0.1 mm 1 mps 619 mmHg 69%
    11:00 +24°C° 0.1 mm 1 mps 619 mmHg 62%
    12:00 +25°C° 0.1 mm 2 mps 619 mmHg 55%
    13:00 +25°C° 0.4 mm 1 mps 618 mmHg 58%
    14:00 +25°C° 0.4 mm 1 mps 618 mmHg 60%
    15:00 +24°C° 0.4 mm 1 mps 617 mmHg 63%
    16:00 +22°C° 0.5 mm 1 mps 616 mmHg 73%
    17:00 +20°C° 0.5 mm 1 mps 616 mmHg 82%
    18:00 +17°C° 0.5 mm 0 mps 615 mmHg 91%
    19:00 +16°C° 0 mm 0 mps 615 mmHg 92%
    20:00 +16°C° 0 mm 1 mps 615 mmHg 93%
    21:00 +15°C° 0 mm 1 mps 616 mmHg 94%
    22:00 +15°C° 0 mm 1 mps 616 mmHg 94%
    23:00 +15°C° 0 mm 1 mps 615 mmHg 94%

    26 August, Monday

    Time Temperature Precipitation Wind Pressure Humidity
    00:00 +15°C° 0 mm 1 mps 615 mmHg 94%
    01:00 +15°C° 0 mm 1 mps 615 mmHg 94%
    02:00 +15°C° 0 mm 1 mps 615 mmHg 94%
    03:00 +15°C° 0 mm 1 mps 614 mmHg 94%
    04:00 +15°C° 0 mm 1 mps 615 mmHg 93%
    05:00 +15°C° 0 mm 1 mps 615 mmHg 92%
    06:00 +15°C° 0 mm 1 mps 615 mmHg 92%
    07:00 +18°C° 0 mm 1 mps 616 mmHg 82%
    08:00 +21°C° 0 mm 1 mps 617 mmHg 73%
    09:00 +23°C° 0 mm 1 mps 619 mmHg 64%
    10:00 +24°C° 0.5 mm 1 mps 618 mmHg 64%
    11:00 +24°C° 0.5 mm 1 mps 618 mmHg 64%
    12:00 +25°C° 0.5 mm 1 mps 618 mmHg 64%
    13:00 +24°C° 2.3 mm 1 mps 617 mmHg 71%
    14:00 +23°C° 2.3 mm 1 mps 616 mmHg 78%
    15:00 +22°C° 2.3 mm 1 mps 615 mmHg 85%
    16:00 +20°C° 2.2 mm 1 mps 615 mmHg 88%
    17:00 +19°C° 2.2 mm 1 mps 615 mmHg 92%
    18:00 +18°C° 2.2 mm 1 mps 615 mmHg 96%
    19:00 +16°C° 1.2 mm 1 mps 615 mmHg 96%
    20:00 +16°C° 1.2 mm 1 mps 615 mmHg 95%
    21:00 +15°C° 1.2 mm 1 mps 616 mmHg 95%
    22:00 +15°C° 0.5 mm 1 mps 616 mmHg 95%
    23:00 +15°C° 0.5 mm 1 mps 616 mmHg 94%
    Show more